Lid_Strength_Index
0 1 0 0 0 0 0 0 -1 -1 -1 -1 -1 -1 -1 -0 -0 -1 -0 -0 -0 0
0 0 0 -0 -0 0 -1 -0 -1 -1 -1 -1 -1 -1 -1 -0 -0 -0 -0 -0 -0 0
0 0 0 -0 0 -0 -0 -1 -1 -1 -1 -1 -1 -1 -1 -0 -1 -0 -0 -0 -0 -0
1 0 0 0 -0 -0 -0 -1 -0 -1 -0 -0 -0 -1 -0 -0 -0 0 -0 -0 -0 0
0 0 0 0 -0 -0 0 -0 -0 -0 -0 -0 -0 -1 -0 0 -0 0 0 0 0 0
1 1 1 1 0 -0 -0 -0 -0 -0 -0 -0 -0 -0 -0 -0 0 0 0 0 0 0
1 1 1 0 0 0 0 0 0 -0 -0 -0 -0 -0 -0 -0 -0 0 0 -0 -0 -0
1 1 0 0 0 0 0 -0 -0 0 -0 -0 -0 0 -0 -0 -0 0 0 -0 -0 -0
1 1 1 1 1 0 0 0 0 0 0 0 0 2 3 0 0 0 0 1 0 -0
1 1 1 1 1 1 1 0 0 1 0 1 0 4 4 3 0 0 0 0 0 0
1 1 1 1 1 1 1 1 1 1 0 0 0 5 5 4 -0 0 0 0 -0 0
1 2 1 2 1 1 1 1 1 1 1 1 0 6 6 4 0 1 1 0 -0 0
1 1 2 1 1 1 1 1 1 1 1 2 1 5 7 5 1 1 1 0 0 4
1 1 1 1 1 1 1 1 1 1 1 0 1 1 8 8 1 1 1 1 1 0